Time,TemperatureF,DewpointF,PressureIn,WindDirection,WindDirectionDegrees,WindSpeedMPH,WindSpeedGustMPH,Humidity,HourlyPrecipIn,Conditions,Clouds,dailyrainin,SoftwareType,DateUTC
2013-05-22 00:01:00,70.9,67.5,29.89,SE,140,0.0,0.0,89,0.00,,,0.00,VWS V14.01,2013-05-22 04:01:00,
2013-05-22 00:02:00,70.9,67.2,29.89,SE,140,0.0,0.0,88,0.00,,,0.00,VWS V14.01,2013-05-22 04:02:00,
2013-05-22 00:07:00,70.8,67.4,29.89,SE,136,1.0,1.0,89,0.00,,,0.00,VWS V14.01,2013-05-22 04:07:00,
2013-05-22 00:12:00,70.7,67.3,29.89,SSE,161,1.0,5.0,89,0.00,,,0.00,VWS V14.01,2013-05-22 04:12:00,
2013-05-22 00:17:00,70.6,67.2,29.89,SE,127,1.0,5.0,89,0.00,,,0.00,VWS V14.01,2013-05-22 04:17:00,
2013-05-22 00:22:00,70.5,67.4,29.89,SSE,166,0.0,5.0,90,0.00,,,0.00,VWS V14.01,2013-05-22 04:22:00,
2013-05-22 00:27:00,70.5,67.4,29.89,SE,140,5.0,5.0,90,0.00,,,0.00,VWS V14.01,2013-05-22 04:27:00,
2013-05-22 00:32:00,70.6,67.5,29.89,SE,140,0.0,3.0,90,0.00,,,0.00,VWS V14.01,2013-05-22 04:32:00,
2013-05-22 00:37:00,70.6,67.5,29.89,SE,136,0.0,3.0,90,0.00,,,0.00,VWS V14.01,2013-05-22 04:37:00,
2013-05-22 00:42:00,70.6,67.5,29.89,ESE,121,0.0,3.0,90,0.00,,,0.00,VWS V14.01,2013-05-22 04:42:00,
2013-05-22 00:47:00,70.6,67.5,29.89,SSE,162,0.0,3.0,90,0.00,,,0.00,VWS V14.01,2013-05-22 04:47:00,
2013-05-22 00:52:00,70.6,67.5,29.89,SSE,162,0.0,3.0,90,0.00,,,0.00,VWS V14.01,2013-05-22 04:52:00,
2013-05-22 00:57:00,70.5,67.4,29.89,SSE,162,0.0,3.0,90,0.00,,,0.00,VWS V14.01,2013-05-22 04:57:00,
2013-05-22 01:02:00,70.3,67.2,29.89,SE,144,2.0,2.0,90,0.00,,CLR,0.00,VWS V14.01,2013-05-22 05:02:00,
2013-05-22 01:07:00,70.2,67.1,29.89,SE,139,0.0,2.0,90,0.00,,CLR,0.00,VWS V14.01,2013-05-22 05:07:00,
2013-05-22 01:12:00,70.2,67.1,29.89,SE,139,1.0,2.0,90,0.00,,CLR,0.00,VWS V14.01,2013-05-22 05:12:00,
2013-05-22 01:17:00,70.0,67.3,29.89,SE,139,0.0,2.0,91,0.00,,CLR,0.00,VWS V14.01,2013-05-22 05:17:00,
2013-05-22 01:22:00,69.8,67.1,29.89,SE,139,0.0,2.0,91,0.00,,CLR,0.00,VWS V14.01,2013-05-22 05:22:00,
2013-05-22 01:27:00,69.7,67.0,29.89,SE,139,0.0,2.0,91,0.00,,CLR,0.00,VWS V14.01,2013-05-22 05:27:00,
2013-05-22 01:32:00,69.7,67.0,29.89,SE,139,0.0,0.0,91,0.00,,CLR,0.00,VWS V14.01,2013-05-22 05:32:00,
2013-05-22 01:37:00,69.6,67.2,29.89,SE,139,0.0,0.0,92,0.00,,CLR,0.00,VWS V14.01,2013-05-22 05:37:00,
2013-05-22 01:42:00,69.5,67.1,29.89,SE,134,0.0,0.0,92,0.00,,,0.00,VWS V14.01,2013-05-22 05:42:00,
2013-05-22 01:47:00,69.5,67.1,29.89,SE,133,0.0,0.0,92,0.00,,,0.00,VWS V14.01,2013-05-22 05:47:00,
2013-05-22 01:52:00,69.3,66.9,29.88,SE,133,0.0,2.0,92,0.00,,,0.00,VWS V14.01,2013-05-22 05:52:00,
2013-05-22 01:57:00,69.2,67.1,29.89,SE,133,1.0,2.0,93,0.00,,,0.00,VWS V14.01,2013-05-22 05:57:00,
2013-05-22 02:02:00,69.2,67.1,29.89,SE,133,0.0,0.0,93,0.00,,,0.00,VWS V14.01,2013-05-22 06:02:00,
2013-05-22 02:07:00,69.2,66.8,29.88,SE,133,0.0,0.0,92,0.00,,,0.00,VWS V14.01,2013-05-22 06:07:00,
2013-05-22 02:12:00,69.0,66.9,29.88,ESE,114,1.0,1.0,93,0.00,,,0.00,VWS V14.01,2013-05-22 06:12:00,
2013-05-22 02:17:00,68.9,66.8,29.88,ESE,114,0.0,1.0,93,0.00,,,0.00,VWS V14.01,2013-05-22 06:17:00,
2013-05-22 02:22:00,68.8,66.7,29.88,SE,126,0.0,2.0,93,0.00,,,0.00,VWS V14.01,2013-05-22 06:22:00,
2013-05-22 02:27:00,68.7,66.9,29.87,SE,131,0.0,4.0,94,0.00,,,0.00,VWS V14.01,2013-05-22 06:27:00,
2013-05-22 02:32:00,68.8,67.0,29.87,SE,128,0.0,2.0,94,0.00,,,0.00,VWS V14.01,2013-05-22 06:32:00,
2013-05-22 02:37:00,68.8,67.0,29.87,SE,130,0.0,2.0,94,0.00,,,0.00,VWS V14.01,2013-05-22 06:37:00,
2013-05-22 02:42:00,68.8,67.0,29.87,SE,138,0.0,3.0,94,0.00,,,0.00,VWS V14.01,2013-05-22 06:42:00,
2013-05-22 02:47:00,68.8,67.0,29.87,East,93,0.0,3.0,94,0.00,,,0.00,VWS V14.01,2013-05-22 06:47:00,
2013-05-22 02:52:00,68.7,66.9,29.87,East,92,0.0,3.0,94,0.00,,,0.00,VWS V14.01,2013-05-22 06:52:00,
2013-05-22 02:57:00,68.6,66.5,29.87,East,93,0.0,3.0,93,0.00,,,0.00,VWS V14.01,2013-05-22 06:57:00,
2013-05-22 03:02:00,68.6,66.5,29.87,East,93,0.0,0.0,93,0.00,,,0.00,VWS V14.01,2013-05-22 07:02:00,
2013-05-22 03:07:00,68.4,66.6,29.87,East,92,0.0,2.0,94,0.00,,,0.00,VWS V14.01,2013-05-22 07:07:00,
2013-05-22 03:12:00,68.4,66.6,29.87,SE,139,0.0,2.0,94,0.00,,,0.00,VWS V14.01,2013-05-22 07:12:00,
2013-05-22 03:17:00,68.4,66.6,29.87,SE,136,0.0,2.0,94,0.00,,,0.00,VWS V14.01,2013-05-22 07:17:00,
2013-05-22 03:22:00,68.3,66.5,29.87,SE,136,0.0,2.0,94,0.00,,,0.00,VWS V14.01,2013-05-22 07:22:00,
2013-05-22 03:27:00,68.2,66.4,29.87,SE,136,0.0,2.0,94,0.00,,,0.00,VWS V14.01,2013-05-22 07:27:00,
2013-05-22 03:32:00,68.1,66.6,29.87,SE,137,2.0,2.0,95,0.00,,,0.00,VWS V14.01,2013-05-22 07:32:00,
2013-05-22 03:37:00,68.0,66.5,29.88,SE,136,0.0,2.0,95,0.00,,,0.00,VWS V14.01,2013-05-22 07:37:00,
2013-05-22 03:42:00,67.9,66.4,29.88,SE,136,0.0,2.0,95,0.00,,,0.00,VWS V14.01,2013-05-22 07:42:00,
2013-05-22 03:47:00,67.8,66.3,29.88,SE,136,0.0,2.0,95,0.00,,,0.00,VWS V14.01,2013-05-22 07:47:00,
2013-05-22 03:52:00,67.8,66.3,29.87,SE,136,0.0,2.0,95,0.00,,,0.00,VWS V14.01,2013-05-22 07:52:00,
2013-05-22 03:57:00,67.7,66.2,29.87,SE,136,0.0,2.0,95,0.00,,,0.00,VWS V14.01,2013-05-22 07:57:00,
2013-05-22 04:02:00,67.6,66.4,29.87,SE,136,0.0,0.0,96,0.00,,,0.00,VWS V14.01,2013-05-22 08:02:00,
2013-05-22 04:07:00,67.5,66.3,29.87,SE,136,0.0,0.0,96,0.00,,,0.00,VWS V14.01,2013-05-22 08:07:00,
2013-05-22 04:13:00,67.5,66.3,29.87,SE,134,0.0,0.0,96,0.00,,,0.00,VWS V14.01,2013-05-22 08:13:00,
2013-05-22 04:18:00,67.5,66.3,29.87,SE,133,0.0,0.0,96,0.00,,,0.00,VWS V14.01,2013-05-22 08:18:00,
2013-05-22 04:23:00,67.5,66.3,29.87,SE,133,0.0,0.0,96,0.00,,,0.00,VWS V14.01,2013-05-22 08:23:00,
2013-05-22 04:28:00,67.5,66.3,29.86,SE,133,0.0,0.0,96,0.00,,,0.00,VWS V14.01,2013-05-22 08:28:00,
2013-05-22 04:33:00,67.4,66.2,29.87,SE,134,0.0,0.0,96,0.00,,,0.00,VWS V14.01,2013-05-22 08:33:00,
2013-05-22 04:38:00,67.3,66.1,29.87,SE,133,0.0,0.0,96,0.00,,,0.00,VWS V14.01,2013-05-22 08:38:00,
2013-05-22 04:43:00,67.3,66.1,29.87,SE,134,0.0,0.0,96,0.00,,,0.00,VWS V14.01,2013-05-22 08:43:00,
2013-05-22 04:48:00,67.2,66.0,29.87,SE,134,0.0,0.0,96,0.00,,,0.00,VWS V14.01,2013-05-22 08:48:00,
2013-05-22 04:53:00,67.1,65.9,29.87,SE,133,0.0,0.0,96,0.00,,,0.00,VWS V14.01,2013-05-22 08:53:00,
2013-05-22 04:58:00,67.0,65.8,29.87,SE,133,0.0,0.0,96,0.00,,,0.00,VWS V14.01,2013-05-22 08:58:00,
2013-05-22 05:03:00,66.9,65.7,29.88,SE,134,0.0,0.0,96,0.00,,,0.00,VWS V14.01,2013-05-22 09:03:00,
2013-05-22 05:08:00,66.8,65.6,29.88,SE,133,0.0,2.0,96,0.00,,,0.00,VWS V14.01,2013-05-22 09:08:00,
2013-05-22 05:13:00,66.8,65.9,29.88,SE,133,0.0,2.0,97,0.00,,,0.00,VWS V14.01,2013-05-22 09:13:00,
2013-05-22 05:18:00,66.7,65.8,29.88,SE,133,0.0,2.0,97,0.00,,,0.00,VWS V14.01,2013-05-22 09:18:00,
2013-05-22 05:23:00,66.7,65.8,29.88,SE,133,0.0,2.0,97,0.00,,,0.00,VWS V14.01,2013-05-22 09:23:00,
2013-05-22 05:28:00,66.6,65.7,29.88,SE,133,0.0,2.0,97,0.00,,,0.00,VWS V14.01,2013-05-22 09:28:00,
2013-05-22 05:33:00,66.5,65.6,29.88,SE,133,0.0,1.0,97,0.00,,,0.00,VWS V14.01,2013-05-22 09:33:00,
2013-05-22 05:38:00,66.5,65.6,29.88,SE,133,0.0,1.0,97,0.00,,,0.00,VWS V14.01,2013-05-22 09:38:00,
2013-05-22 05:43:00,66.5,65.6,29.89,SE,133,0.0,1.0,97,0.00,,,0.00,VWS V14.01,2013-05-22 09:43:00,
2013-05-22 05:48:00,66.4,65.5,29.89,SE,133,0.0,1.0,97,0.00,,,0.00,VWS V14.01,2013-05-22 09:48:00,
2013-05-22 05:53:00,66.4,65.5,29.89,SE,133,0.0,1.0,97,0.00,,,0.00,VWS V14.01,2013-05-22 09:53:00,
2013-05-22 05:58:00,66.4,65.5,29.89,SE,134,0.0,1.0,97,0.00,,,0.00,VWS V14.01,2013-05-22 09:58:00,
2013-05-22 06:03:00,66.5,65.6,29.89,SE,133,0.0,2.0,97,0.00,,,0.00,VWS V14.01,2013-05-22 10:03:00,
2013-05-22 06:08:00,66.6,66.0,29.89,SE,133,0.0,2.0,98,0.00,,,0.00,VWS V14.01,2013-05-22 10:08:00,
2013-05-22 06:13:00,66.6,66.0,29.89,SE,133,0.0,2.0,98,0.00,,,0.00,VWS V14.01,2013-05-22 10:13:00,
2013-05-22 06:18:00,66.7,66.1,29.90,SE,133,0.0,2.0,98,0.00,,,0.00,VWS V14.01,2013-05-22 10:18:00,
2013-05-22 06:23:00,66.7,66.1,29.90,SE,133,0.0,2.0,98,0.00,,,0.00,VWS V14.01,2013-05-22 10:23:00,
2013-05-22 06:28:00,66.8,66.2,29.90,SE,133,0.0,2.0,98,0.00,,,0.00,VWS V14.01,2013-05-22 10:28:00,
2013-05-22 06:33:00,66.9,66.3,29.90,SE,133,0.0,0.0,98,0.00,,,0.00,VWS V14.01,2013-05-22 10:33:00,
2013-05-22 06:38:00,66.9,66.3,29.90,SE,133,0.0,2.0,98,0.00,,,0.00,VWS V14.01,2013-05-22 10:38:00,
2013-05-22 06:43:00,67.0,66.4,29.90,SE,134,1.0,2.0,98,0.00,,,0.00,VWS V14.01,2013-05-22 10:43:00,
2013-05-22 06:48:00,67.1,66.5,29.90,SE,134,0.0,2.0,98,0.00,,,0.00,VWS V14.01,2013-05-22 10:48:00,
2013-05-22 06:53:00,67.2,66.6,29.90,SE,134,0.0,3.0,98,0.00,,,0.00,VWS V14.01,2013-05-22 10:53:00,
2013-05-22 06:58:00,67.3,66.7,29.90,ESE,117,0.0,3.0,98,0.00,,,0.00,VWS V14.01,2013-05-22 10:58:00,
2013-05-22 07:04:00,67.4,66.8,29.91,ESE,117,0.0,0.0,98,0.00,,,0.00,VWS V14.01,2013-05-22 11:04:00,
2013-05-22 07:09:00,67.4,66.8,29.91,ESE,116,0.0,0.0,98,0.00,,,0.00,VWS V14.01,2013-05-22 11:09:00,
2013-05-22 07:14:00,67.6,67.0,29.91,ESE,116,1.0,1.0,98,0.00,,,0.00,VWS V14.01,2013-05-22 11:14:00,
2013-05-22 07:19:00,67.7,66.8,29.91,ESE,117,0.0,3.0,97,0.00,,,0.00,VWS V14.01,2013-05-22 11:19:00,
2013-05-22 07:24:00,67.9,67.3,29.91,SE,130,0.0,3.0,98,0.00,,,0.00,VWS V14.01,2013-05-22 11:24:00,
2013-05-22 07:29:00,68.1,67.5,29.91,SE,130,0.0,3.0,98,0.00,,,0.00,VWS V14.01,2013-05-22 11:29:00,
2013-05-22 07:34:00,68.3,67.4,29.91,SE,133,0.0,3.0,97,0.00,,,0.00,VWS V14.01,2013-05-22 11:34:00,
2013-05-22 07:39:00,68.4,67.5,29.91,SE,133,0.0,3.0,97,0.00,,,0.00,VWS V14.01,2013-05-22 11:39:00,
2013-05-22 07:44:00,68.5,67.6,29.92,SE,133,0.0,3.0,97,0.00,,,0.00,VWS V14.01,2013-05-22 11:44:00,
2013-05-22 07:49:00,68.7,67.8,29.92,SE,133,0.0,3.0,97,0.00,,,0.00,VWS V14.01,2013-05-22 11:49:00,
2013-05-22 07:54:00,68.8,67.6,29.92,SE,133,0.0,3.0,96,0.00,,,0.00,VWS V14.01,2013-05-22 11:54:00,
2013-05-22 07:59:00,68.9,67.7,29.92,SE,133,0.0,3.0,96,0.00,,,0.00,VWS V14.01,2013-05-22 11:59:00,
2013-05-22 08:04:00,69.0,67.8,29.92,SE,138,0.0,4.0,96,0.00,,,0.00,VWS V14.01,2013-05-22 12:04:00,
2013-05-22 08:09:00,69.3,68.1,29.92,East,86,0.0,4.0,96,0.00,,,0.00,VWS V14.01,2013-05-22 12:09:00,
2013-05-22 08:14:00,69.5,68.3,29.92,SSE,158,0.0,4.0,96,0.00,,,0.00,VWS V14.01,2013-05-22 12:14:00,
2013-05-22 08:19:00,69.8,68.6,29.92,ESE,105,0.0,4.0,96,0.00,,,0.00,VWS V14.01,2013-05-22 12:19:00,
2013-05-22 08:24:00,69.9,68.4,29.92,SSE,153,3.0,4.0,95,0.00,,,0.00,VWS V14.01,2013-05-22 12:24:00,
2013-05-22 08:29:00,70.0,68.5,29.93,ESE,106,2.0,4.0,95,0.00,,,0.00,VWS V14.01,2013-05-22 12:29:00,
2013-05-22 08:34:00,70.2,68.7,29.93,East,81,0.0,2.0,95,0.00,,,0.00,VWS V14.01,2013-05-22 12:34:00,
2013-05-22 08:39:00,70.3,68.5,29.93,East,81,0.0,2.0,94,0.00,,,0.00,VWS V14.01,2013-05-22 12:39:00,
2013-05-22 08:44:00,70.4,68.6,29.93,East,81,0.0,2.0,94,0.00,,,0.00,VWS V14.01,2013-05-22 12:44:00,
2013-05-22 08:49:00,70.6,68.8,29.93,East,86,0.0,2.0,94,0.00,,,0.00,VWS V14.01,2013-05-22 12:49:00,
2013-05-22 08:54:00,70.6,68.8,29.93,East,87,0.0,2.0,94,0.00,,,0.00,VWS V14.01,2013-05-22 12:54:00,
2013-05-22 08:59:00,70.7,68.9,29.93,ENE,74,0.0,2.0,94,0.00,,,0.00,VWS V14.01,2013-05-22 12:59:00,
2013-05-22 09:04:00,70.7,68.9,29.93,ESE,115,0.0,2.0,94,0.00,,,0.00,VWS V14.01,2013-05-22 13:04:00,
2013-05-22 09:09:00,70.8,69.0,29.93,NNE,25,0.0,3.0,94,0.00,,,0.00,VWS V14.01,2013-05-22 13:09:00,
2013-05-22 09:14:00,70.9,69.1,29.93,ESE,113,0.0,3.0,94,0.00,,,0.00,VWS V14.01,2013-05-22 13:14:00,
2013-05-22 09:19:00,70.8,69.0,29.93,ESE,116,0.0,3.0,94,0.00,,,0.00,VWS V14.01,2013-05-22 13:19:00,
2013-05-22 09:24:00,70.7,68.9,29.93,SE,125,0.0,4.0,94,0.00,,,0.00,VWS V14.01,2013-05-22 13:24:00,
2013-05-22 09:29:00,70.6,68.8,29.93,East,97,0.0,4.0,94,0.00,,,0.00,VWS V14.01,2013-05-22 13:29:00,
2013-05-22 09:34:00,70.6,68.5,29.93,NE,55,0.0,4.0,93,0.00,,,0.00,VWS V14.01,2013-05-22 13:34:00,
2013-05-22 09:39:00,70.2,67.8,29.93,ESE,116,0.0,4.0,92,0.00,,,0.00,VWS V14.01,2013-05-22 13:39:00,
2013-05-22 09:44:00,69.8,67.1,29.93,East,88,1.0,4.0,91,0.00,,,0.00,VWS V14.01,2013-05-22 13:44:00,
2013-05-22 09:49:00,69.5,66.8,29.93,ENE,65,0.0,4.0,91,0.00,,,0.00,VWS V14.01,2013-05-22 13:49:00,
2013-05-22 09:54:00,69.3,66.9,29.94,NE,48,1.0,4.0,92,0.00,,,0.00,VWS V14.01,2013-05-22 13:54:00,
2013-05-22 09:59:00,69.0,65.9,29.94,NE,42,3.0,4.0,90,0.00,,,0.00,VWS V14.01,2013-05-22 13:59:00,
2013-05-22 10:04:00,69.0,65.9,29.94,NE,50,0.0,4.0,90,0.00,,,0.00,VWS V14.01,2013-05-22 14:04:00,
2013-05-22 10:09:00,68.9,65.8,29.94,East,98,0.0,4.0,90,0.00,,,0.00,VWS V14.01,2013-05-22 14:09:00,
2013-05-22 10:14:00,68.8,65.8,29.93,NE,46,0.0,4.0,90,0.00,,,0.00,VWS V14.01,2013-05-22 14:14:00,
2013-05-22 10:19:00,68.7,65.7,29.93,NE,42,0.0,4.0,90,0.00,,,0.00,VWS V14.01,2013-05-22 14:19:00,
2013-05-22 10:24:00,68.8,65.8,29.93,SE,134,0.0,4.0,90,0.00,,,0.00,VWS V14.01,2013-05-22 14:24:00,
2013-05-22 10:29:00,68.8,65.4,29.94,NE,49,0.0,2.0,89,0.00,,,0.00,VWS V14.01,2013-05-22 14:29:00,
2013-05-22 10:34:00,68.8,65.8,29.94,NE,50,1.0,2.0,90,0.00,,,0.00,VWS V14.01,2013-05-22 14:34:00,
2013-05-22 10:40:00,69.0,65.9,29.93,NE,50,0.0,3.0,90,0.00,,,0.00,VWS V14.01,2013-05-22 14:40:00,
2013-05-22 10:45:00,69.5,66.1,29.94,NE,34,0.0,3.0,89,0.00,,,0.00,VWS V14.01,2013-05-22 14:45:00,
2013-05-22 10:50:00,70.1,66.7,29.94,NE,52,0.0,3.0,89,0.00,,,0.00,VWS V14.01,2013-05-22 14:50:00,
2013-05-22 10:55:00,70.5,66.8,29.94,NNW,333,1.0,3.0,88,0.00,,,0.00,VWS V14.01,2013-05-22 14:55:00,
2013-05-22 11:00:00,70.9,66.8,29.94,NNW,348,0.0,0.0,87,0.00,,,0.00,VWS V14.01,2013-05-22 15:00:00,
2013-05-22 11:05:00,71.3,67.2,29.94,North,355,0.0,0.0,87,0.00,,,0.00,VWS V14.01,2013-05-22 15:05:00,
2013-05-22 11:10:00,71.7,67.3,29.93,NNE,29,0.0,2.0,86,0.00,,,0.00,VWS V14.01,2013-05-22 15:10:00,
2013-05-22 11:15:00,72.0,67.2,29.93,NNE,30,0.0,2.0,85,0.00,,,0.00,VWS V14.01,2013-05-22 15:15:00,
2013-05-22 11:20:00,72.3,67.2,29.93,NE,56,0.0,3.0,84,0.00,,,0.00,VWS V14.01,2013-05-22 15:20:00,
2013-05-22 11:25:00,72.6,67.5,29.93,NE,56,0.0,3.0,84,0.00,,,0.00,VWS V14.01,2013-05-22 15:25:00,
2013-05-22 11:30:00,72.6,67.2,29.93,WNW,297,1.0,2.0,83,0.00,,,0.00,VWS V14.01,2013-05-22 15:30:00,
2013-05-22 11:35:00,72.5,67.4,29.93,NNE,19,0.0,3.0,84,0.00,,,0.00,VWS V14.01,2013-05-22 15:35:00,
2013-05-22 11:40:00,72.6,67.5,29.93,NNW,334,0.0,3.0,84,0.00,,,0.00,VWS V14.01,2013-05-22 15:40:00,
2013-05-22 11:45:00,73.0,67.5,29.93,NW,326,2.0,4.0,83,0.00,,,0.00,VWS V14.01,2013-05-22 15:45:00,
2013-05-22 11:50:00,73.3,67.5,29.93,NNW,333,0.0,4.0,82,0.00,,,0.00,VWS V14.01,2013-05-22 15:50:00,
2013-05-22 11:55:00,73.6,67.4,29.93,NNW,343,0.0,4.0,81,0.00,,,0.00,VWS V14.01,2013-05-22 15:55:00,
2013-05-22 12:00:00,73.8,67.6,29.93,NE,38,0.0,0.0,81,0.00,,,0.00,VWS V14.01,2013-05-22 16:00:00,
2013-05-22 12:05:00,74.0,67.4,29.93,NNW,337,1.0,3.0,80,0.00,,,0.00,VWS V14.01,2013-05-22 16:05:00,
2013-05-22 12:10:00,74.3,67.7,29.93,NW,322,2.0,3.0,80,0.00,,,0.00,VWS V14.01,2013-05-22 16:10:00,
2013-05-22 12:15:00,74.5,68.3,29.93,NNW,333,0.0,3.0,81,0.00,,,0.00,VWS V14.01,2013-05-22 16:15:00,
2013-05-22 12:20:00,74.7,68.1,29.92,NNW,333,0.0,3.0,80,0.00,,,0.00,VWS V14.01,2013-05-22 16:20:00,
2013-05-22 12:25:00,74.8,68.6,29.92,NNE,29,0.0,3.0,81,0.00,,,0.00,VWS V14.01,2013-05-22 16:25:00,
2013-05-22 12:30:00,75.1,68.9,29.92,East,80,0.0,1.0,81,0.00,,,0.00,VWS V14.01,2013-05-22 16:30:00,
2013-05-22 12:35:00,75.2,69.0,29.92,East,80,0.0,1.0,81,0.00,,,0.00,VWS V14.01,2013-05-22 16:35:00,
2013-05-22 12:40:00,75.5,69.6,29.92,SE,137,3.0,3.0,82,0.00,,,0.00,VWS V14.01,2013-05-22 16:40:00,
2013-05-22 12:45:00,75.7,69.8,29.91,SE,129,2.0,4.0,82,0.00,,,0.00,VWS V14.01,2013-05-22 16:45:00,
2013-05-22 12:50:00,76.2,70.3,29.91,NE,38,0.0,4.0,82,0.00,,,0.00,VWS V14.01,2013-05-22 16:50:00,
2013-05-22 12:55:00,76.9,71.0,29.91,South,170,0.0,4.0,82,0.00,,,0.00,VWS V14.01,2013-05-22 16:55:00,
2013-05-22 13:00:00,77.5,71.2,29.91,South,173,4.0,5.0,81,0.00,,,0.00,VWS V14.01,2013-05-22 17:00:00,
2013-05-22 13:05:00,77.6,71.7,29.91,SSE,150,0.0,5.0,82,0.00,,,0.00,VWS V14.01,2013-05-22 17:05:00,
2013-05-22 13:10:00,77.7,71.8,29.91,SSW,198,1.0,5.0,82,0.00,,,0.00,VWS V14.01,2013-05-22 17:10:00,
2013-05-22 13:15:00,78.1,72.2,29.90,South,189,0.0,5.0,82,0.00,,,0.00,VWS V14.01,2013-05-22 17:15:00,
2013-05-22 13:20:00,78.4,72.4,29.90,SE,128,2.0,5.0,82,0.00,,,0.00,VWS V14.01,2013-05-22 17:20:00,
2013-05-22 13:25:00,78.7,72.4,29.90,SE,135,1.0,7.0,81,0.00,,,0.00,VWS V14.01,2013-05-22 17:25:00,
2013-05-22 13:30:00,78.8,72.1,29.90,ESE,121,4.0,5.0,80,0.00,,,0.00,VWS V14.01,2013-05-22 17:30:00,
2013-05-22 13:35:00,79.0,72.3,29.90,NNE,28,1.0,5.0,80,0.00,,,0.00,VWS V14.01,2013-05-22 17:35:00,
2013-05-22 13:40:00,79.3,72.2,29.90,ESE,122,3.0,5.0,79,0.00,,,0.00,VWS V14.01,2013-05-22 17:40:00,
2013-05-22 13:45:00,79.3,72.6,29.90,SE,125,3.0,8.0,80,0.00,,,0.00,VWS V14.01,2013-05-22 17:45:00,
2013-05-22 13:50:00,79.5,72.4,29.90,South,169,0.0,8.0,79,0.00,,,0.00,VWS V14.01,2013-05-22 17:50:00,
2013-05-22 13:55:00,79.9,72.8,29.90,ESE,110,1.0,8.0,79,0.00,,,0.00,VWS V14.01,2013-05-22 17:55:00,
2013-05-22 14:00:00,80.0,72.9,29.89,ESE,117,1.0,1.0,79,0.00,,,0.00,VWS V14.01,2013-05-22 18:00:00,
2013-05-22 14:05:00,79.9,72.4,29.89,SW,230,0.0,6.0,78,0.00,,,0.00,VWS V14.01,2013-05-22 18:05:00,
2013-05-22 14:10:00,80.0,72.5,29.89,SE,146,0.0,6.0,78,0.00,,,0.00,VWS V14.01,2013-05-22 18:10:00,
2013-05-22 14:15:00,80.4,72.5,29.89,ESE,104,0.0,7.0,77,0.00,,,0.00,VWS V14.01,2013-05-22 18:15:00,
2013-05-22 14:20:00,80.7,72.4,29.89,SSW,194,1.0,7.0,76,0.00,,,0.00,VWS V14.01,2013-05-22 18:20:00,
2013-05-22 14:26:00,81.1,72.8,29.89,SE,133,0.0,7.0,76,0.00,,,0.00,VWS V14.01,2013-05-22 18:26:00,
2013-05-22 14:31:00,81.8,73.5,29.89,South,170,3.0,3.0,76,0.00,,,0.00,VWS V14.01,2013-05-22 18:31:00,
2013-05-22 14:36:00,82.1,73.0,29.89,NNW,329,0.0,5.0,74,0.00,,,0.00,VWS V14.01,2013-05-22 18:36:00,
2013-05-22 14:41:00,82.7,73.6,29.89,SSE,152,2.0,5.0,74,0.00,,,0.00,VWS V14.01,2013-05-22 18:41:00,
2013-05-22 14:46:00,82.8,73.3,29.88,SW,227,2.0,10.0,73,0.00,,,0.00,VWS V14.01,2013-05-22 18:46:00,
2013-05-22 14:51:00,82.9,72.9,29.88,NE,42,1.0,10.0,72,0.00,,,0.00,VWS V14.01,2013-05-22 18:51:00,
2013-05-22 14:56:00,83.1,74.0,29.88,SE,143,2.0,10.0,74,0.00,,,0.00,VWS V14.01,2013-05-22 18:56:00,
2013-05-22 15:01:00,83.1,72.7,29.88,SSW,193,0.0,5.0,71,0.00,,,0.00,VWS V14.01,2013-05-22 19:01:00,
2013-05-22 15:06:00,83.7,73.7,29.88,NW,313,1.0,5.0,72,0.00,,,0.00,VWS V14.01,2013-05-22 19:06:00,
2013-05-22 15:11:00,84.2,73.8,29.88,SE,134,0.0,6.0,71,0.00,,,0.00,VWS V14.01,2013-05-22 19:11:00,
2013-05-22 15:16:00,84.3,73.5,29.87,SW,232,2.0,6.0,70,0.00,,,0.00,VWS V14.01,2013-05-22 19:16:00,
2013-05-22 15:21:00,84.2,73.4,29.87,SSE,163,4.0,6.0,70,0.00,,,0.00,VWS V14.01,2013-05-22 19:21:00,
2013-05-22 15:26:00,84.1,73.3,29.87,South,181,3.0,8.0,70,0.00,,,0.00,VWS V14.01,2013-05-22 19:26:00,
2013-05-22 15:31:00,84.3,73.9,29.87,South,185,0.0,0.0,71,0.00,,,0.00,VWS V14.01,2013-05-22 19:31:00,
2013-05-22 15:36:00,84.5,73.7,29.87,NE,54,0.0,5.0,70,0.00,,,0.00,VWS V14.01,2013-05-22 19:36:00,
2013-05-22 15:41:00,84.4,73.6,29.87,SE,138,1.0,5.0,70,0.00,,,0.00,VWS V14.01,2013-05-22 19:41:00,
2013-05-22 15:46:00,84.1,73.7,29.86,ESE,109,0.0,6.0,71,0.00,,,0.00,VWS V14.01,2013-05-22 19:46:00,
2013-05-22 15:51:00,84.1,73.7,29.86,SSE,159,0.0,6.0,71,0.00,,,0.00,VWS V14.01,2013-05-22 19:51:00,
2013-05-22 15:56:00,84.4,73.6,29.86,ESE,112,2.0,6.0,70,0.00,,,0.00,VWS V14.01,2013-05-22 19:56:00,
2013-05-22 16:01:00,84.7,74.3,29.86,South,182,5.0,5.0,71,0.00,,,0.00,VWS V14.01,2013-05-22 20:01:00,
2013-05-22 16:06:00,85.1,73.8,29.86,South,182,2.0,10.0,69,0.00,,,0.00,VWS V14.01,2013-05-22 20:06:00,
2013-05-22 16:11:00,85.7,73.9,29.86,SSW,204,0.0,10.0,68,0.00,,,0.00,VWS V14.01,2013-05-22 20:11:00,
2013-05-22 16:16:00,85.9,72.8,29.85,SSE,150,3.0,10.0,65,0.00,,,0.00,VWS V14.01,2013-05-22 20:16:00,
2013-05-22 16:21:00,85.7,72.1,29.85,SSE,150,0.0,10.0,64,0.00,,,0.00,VWS V14.01,2013-05-22 20:21:00,
2013-05-22 16:26:00,85.7,71.7,29.85,South,186,2.0,10.0,63,0.00,,,0.00,VWS V14.01,2013-05-22 20:26:00,
2013-05-22 16:31:00,86.0,72.4,29.85,ESE,123,2.0,5.0,64,0.00,,,0.00,VWS V14.01,2013-05-22 20:31:00,
2013-05-22 16:36:00,86.2,71.7,29.85,WSW,239,2.0,8.0,62,0.00,,,0.00,VWS V14.01,2013-05-22 20:36:00,
2013-05-22 16:41:00,86.5,71.9,29.85,SSE,159,2.0,8.0,62,0.00,,,0.00,VWS V14.01,2013-05-22 20:41:00,
2013-05-22 16:46:00,86.9,71.3,29.85,SSW,204,4.0,9.0,60,0.00,,,0.00,VWS V14.01,2013-05-22 20:46:00,
2013-05-22 16:51:00,86.7,70.7,29.85,South,170,5.0,9.0,59,0.00,,,0.00,VWS V14.01,2013-05-22 20:51:00,
2013-05-22 16:56:00,86.9,71.3,29.85,SE,133,1.0,9.0,60,0.00,,,0.00,VWS V14.01,2013-05-22 20:56:00,
2013-05-22 17:01:00,87.0,71.4,29.85,ESE,117,2.0,7.0,60,0.00,,,0.00,VWS V14.01,2013-05-22 21:01:00,
2013-05-22 17:06:00,86.9,70.9,29.85,SE,145,2.0,9.0,59,0.00,,,0.00,VWS V14.01,2013-05-22 21:06:00,
2013-05-22 17:11:00,86.6,71.1,29.85,ESE,119,3.0,9.0,60,0.00,,,0.00,VWS V14.01,2013-05-22 21:11:00,
2013-05-22 17:16:00,86.4,70.9,29.84,SE,144,4.0,9.0,60,0.00,,,0.00,VWS V14.01,2013-05-22 21:16:00,
2013-05-22 17:21:00,86.3,71.3,29.84,SSE,163,1.0,9.0,61,0.00,,,0.00,VWS V14.01,2013-05-22 21:21:00,
2013-05-22 17:26:00,86.3,70.8,29.84,SSE,148,2.0,9.0,60,0.00,,,0.00,VWS V14.01,2013-05-22 21:26:00,
2013-05-22 17:31:00,86.3,70.8,29.84,SE,145,0.0,4.0,60,0.00,,,0.00,VWS V14.01,2013-05-22 21:31:00,
2013-05-22 17:36:00,86.3,71.3,29.83,SE,130,1.0,8.0,61,0.00,,,0.00,VWS V14.01,2013-05-22 21:36:00,
2013-05-22 17:41:00,86.3,71.3,29.83,SSE,157,1.0,8.0,61,0.00,,,0.00,VWS V14.01,2013-05-22 21:41:00,
2013-05-22 17:46:00,86.4,71.8,29.83,ESE,121,7.0,10.0,62,0.00,,,0.00,VWS V14.01,2013-05-22 21:46:00,
2013-05-22 17:51:00,86.3,71.8,29.83,SE,139,1.0,10.0,62,0.00,,,0.00,VWS V14.01,2013-05-22 21:51:00,
2013-05-22 17:56:00,86.2,71.7,29.83,South,175,1.0,10.0,62,0.00,,,0.00,VWS V14.01,2013-05-22 21:56:00,
2013-05-22 18:01:00,86.1,71.6,29.83,SE,136,6.0,10.0,62,0.00,,CLR,0.00,VWS V14.01,2013-05-22 22:01:00,
2013-05-22 18:06:00,85.8,71.8,29.83,ESE,113,3.0,11.0,63,0.00,,CLR,0.00,VWS V14.01,2013-05-22 22:06:00,
2013-05-22 18:11:00,85.6,71.6,29.83,SSE,168,5.0,11.0,63,0.00,,CLR,0.00,VWS V14.01,2013-05-22 22:11:00,
2013-05-22 18:17:00,85.3,71.3,29.83,SE,146,5.0,11.0,63,0.00,,CLR,0.00,VWS V14.01,2013-05-22 22:17:00,
2013-05-22 18:22:00,85.0,71.5,29.83,SSE,158,3.0,11.0,64,0.00,,CLR,0.00,VWS V14.01,2013-05-22 22:22:00,
2013-05-22 18:27:00,84.9,71.8,29.84,South,186,2.0,11.0,65,0.00,,CLR,0.00,VWS V14.01,2013-05-22 22:27:00,
2013-05-22 18:32:00,84.8,71.7,29.84,SSE,163,1.0,3.0,65,0.00,,CLR,0.00,VWS V14.01,2013-05-22 22:32:00,
2013-05-22 18:37:00,84.7,71.6,29.84,South,172,4.0,12.0,65,0.00,,CLR,0.00,VWS V14.01,2013-05-22 22:37:00,
2013-05-22 18:42:00,84.5,71.4,29.84,SE,141,2.0,12.0,65,0.00,,CLR,0.00,VWS V14.01,2013-05-22 22:42:00,
2013-05-22 18:47:00,84.1,71.5,29.84,SE,137,2.0,12.0,66,0.00,,CLR,0.00,VWS V14.01,2013-05-22 22:47:00,
2013-05-22 18:52:00,83.9,71.8,29.84,South,170,2.0,12.0,67,0.00,,CLR,0.00,VWS V14.01,2013-05-22 22:52:00,
2013-05-22 18:57:00,83.7,71.1,29.84,SSE,160,1.0,12.0,66,0.00,,CLR,0.00,VWS V14.01,2013-05-22 22:57:00,
2013-05-22 19:02:00,83.5,70.9,29.85,SW,215,0.0,9.0,66,0.00,,CLR,0.00,VWS V14.01,2013-05-22 23:02:00,
2013-05-22 19:07:00,83.4,71.3,29.84,ESE,105,1.0,9.0,67,0.00,,CLR,0.00,VWS V14.01,2013-05-22 23:07:00,
2013-05-22 19:12:00,83.3,70.8,29.84,SSE,161,5.0,9.0,66,0.00,,CLR,0.00,VWS V14.01,2013-05-22 23:12:00,
2013-05-22 19:17:00,83.0,70.0,29.84,South,169,2.0,13.0,65,0.00,,CLR,0.00,VWS V14.01,2013-05-22 23:17:00,
2013-05-22 19:22:00,82.8,70.3,29.84,SSE,165,0.0,13.0,66,0.00,,CLR,0.00,VWS V14.01,2013-05-22 23:22:00,
2013-05-22 19:27:00,82.6,70.1,29.85,SSE,157,2.0,13.0,66,0.00,,CLR,0.00,VWS V14.01,2013-05-22 23:27:00,
2013-05-22 19:32:00,82.2,69.7,29.85,SSE,153,1.0,4.0,66,0.00,,CLR,0.00,VWS V14.01,2013-05-22 23:32:00,
2013-05-22 19:37:00,81.9,69.9,29.85,SE,137,4.0,6.0,67,0.00,,CLR,0.00,VWS V14.01,2013-05-22 23:37:00,
2013-05-22 19:42:00,81.6,70.0,29.85,SE,138,3.0,6.0,68,0.00,,CLR,0.00,VWS V14.01,2013-05-22 23:42:00,
2013-05-22 19:47:00,81.2,70.1,29.85,SE,142,3.0,6.0,69,0.00,,CLR,0.00,VWS V14.01,2013-05-22 23:47:00,
2013-05-22 19:52:00,80.9,70.2,29.85,South,173,3.0,6.0,70,0.00,,CLR,0.00,VWS V14.01,2013-05-22 23:52:00,
2013-05-22 19:57:00,80.6,70.3,29.85,SE,134,2.0,6.0,71,0.00,,CLR,0.00,VWS V14.01,2013-05-22 23:57:00,
2013-05-22 20:02:00,80.3,70.1,29.85,South,173,3.0,10.0,71,0.00,,CLR,0.00,VWS V14.01,2013-05-23 00:02:00,
2013-05-22 20:07:00,80.1,70.3,29.85,SE,128,3.0,10.0,72,0.00,,CLR,0.00,VWS V14.01,2013-05-23 00:07:00,
2013-05-22 20:12:00,79.9,70.1,29.85,SSE,164,1.0,10.0,72,0.00,,CLR,0.00,VWS V14.01,2013-05-23 00:12:00,
2013-05-22 20:17:00,79.7,70.3,29.85,SSE,164,2.0,10.0,73,0.00,,CLR,0.00,VWS V14.01,2013-05-23 00:17:00,
2013-05-22 20:22:00,79.5,70.9,29.85,SSE,162,3.0,10.0,75,0.00,,CLR,0.00,VWS V14.01,2013-05-23 00:22:00,
2013-05-22 20:27:00,79.3,71.1,29.85,SE,132,1.0,10.0,76,0.00,,CLR,0.00,VWS V14.01,2013-05-23 00:27:00,
2013-05-22 20:32:00,79.1,71.3,29.86,SSE,153,4.0,10.0,77,0.00,,CLR,0.00,VWS V14.01,2013-05-23 00:32:00,
2013-05-22 20:37:00,79.0,71.6,29.86,SE,144,0.0,10.0,78,0.00,,CLR,0.00,VWS V14.01,2013-05-23 00:37:00,
2013-05-22 20:42:00,78.8,71.4,29.86,SSE,150,2.0,14.0,78,0.00,,CLR,0.00,VWS V14.01,2013-05-23 00:42:00,
2013-05-22 20:47:00,78.6,71.6,29.87,SSE,153,2.0,14.0,79,0.00,,CLR,0.00,VWS V14.01,2013-05-23 00:47:00,
2013-05-22 20:53:00,78.5,71.4,29.87,South,182,6.0,14.0,79,0.00,,CLR,0.00,VWS V14.01,2013-05-23 00:53:00,
2013-05-22 20:58:00,78.3,71.6,29.87,SSE,161,5.0,14.0,80,0.00,,CLR,0.00,VWS V14.01,2013-05-23 00:58:00,
2013-05-22 21:03:00,78.2,71.5,29.88,SSE,165,1.0,5.0,80,0.00,,CLR,0.00,VWS V14.01,2013-05-23 01:03:00,
2013-05-22 21:08:00,78.1,71.4,29.87,SSE,150,1.0,6.0,80,0.00,,CLR,0.00,VWS V14.01,2013-05-23 01:08:00,
2013-05-22 21:13:00,78.0,71.3,29.88,SSW,208,0.0,6.0,80,0.00,,CLR,0.00,VWS V14.01,2013-05-23 01:13:00,
2013-05-22 21:18:00,77.7,71.4,29.88,SE,142,6.0,6.0,81,0.00,,CLR,0.00,VWS V14.01,2013-05-23 01:18:00,
2013-05-22 21:23:00,77.5,71.2,29.88,SSE,151,0.0,6.0,81,0.00,,CLR,0.00,VWS V14.01,2013-05-23 01:23:00,
2013-05-22 21:28:00,77.4,71.1,29.88,South,175,2.0,6.0,81,0.00,,CLR,0.00,VWS V14.01,2013-05-23 01:28:00,
2013-05-22 21:33:00,77.3,71.0,29.89,SSE,160,0.0,5.0,81,0.00,,CLR,0.00,VWS V14.01,2013-05-23 01:33:00,
2013-05-22 21:38:00,77.1,71.2,29.89,SE,142,0.0,5.0,82,0.00,,CLR,0.00,VWS V14.01,2013-05-23 01:38:00,
2013-05-22 21:43:00,77.0,71.1,29.89,South,180,0.0,6.0,82,0.00,,CLR,0.00,VWS V14.01,2013-05-23 01:43:00,
2013-05-22 21:48:00,76.8,70.9,29.89,SSE,157,2.0,7.0,82,0.00,,CLR,0.00,VWS V14.01,2013-05-23 01:48:00,
2013-05-22 21:53:00,76.6,70.7,29.89,SSE,153,1.0,7.0,82,0.00,,CLR,0.00,VWS V14.01,2013-05-23 01:53:00,
2013-05-22 21:58:00,76.5,71.0,29.90,SE,143,2.0,7.0,83,0.00,,CLR,0.00,VWS V14.01,2013-05-23 01:58:00,
2013-05-22 22:03:00,76.4,70.9,29.90,SSE,155,2.0,8.0,83,0.00,,CLR,0.00,VWS V14.01,2013-05-23 02:03:00,
2013-05-22 22:08:00,76.2,70.7,29.90,SSE,166,0.0,8.0,83,0.00,,CLR,0.00,VWS V14.01,2013-05-23 02:08:00,
2013-05-22 22:13:00,76.0,70.5,29.90,SSE,147,0.0,8.0,83,0.00,,CLR,0.00,VWS V14.01,2013-05-23 02:13:00,
2013-05-22 22:18:00,75.9,70.7,29.90,ESE,117,0.0,8.0,84,0.00,,CLR,0.00,VWS V14.01,2013-05-23 02:18:00,
2013-05-22 22:23:00,75.8,70.6,29.90,SSE,155,1.0,8.0,84,0.00,,CLR,0.00,VWS V14.01,2013-05-23 02:23:00,
2013-05-22 22:28:00,75.8,70.6,29.90,SSE,166,0.0,8.0,84,0.00,,CLR,0.00,VWS V14.01,2013-05-23 02:28:00,
2013-05-22 22:33:00,75.8,70.6,29.90,SSE,167,2.0,4.0,84,0.00,,CLR,0.00,VWS V14.01,2013-05-23 02:33:00,
2013-05-22 22:38:00,75.7,70.5,29.90,SSE,150,0.0,5.0,84,0.00,,CLR,0.00,VWS V14.01,2013-05-23 02:38:00,
2013-05-22 22:43:00,75.6,70.4,29.91,SSE,150,0.0,5.0,84,0.00,,CLR,0.00,VWS V14.01,2013-05-23 02:43:00,
2013-05-22 22:48:00,75.5,70.3,29.91,ESE,118,1.0,5.0,84,0.00,,CLR,0.00,VWS V14.01,2013-05-23 02:48:00,
2013-05-22 22:53:00,75.3,70.1,29.91,South,178,1.0,6.0,84,0.00,,CLR,0.00,VWS V14.01,2013-05-23 02:53:00,
2013-05-22 22:58:00,75.2,70.0,29.91,SE,133,0.0,6.0,84,0.00,,CLR,0.00,VWS V14.01,2013-05-23 02:58:00,
2013-05-22 23:03:00,75.1,70.3,29.91,SE,146,0.0,2.0,85,0.00,,CLR,0.00,VWS V14.01,2013-05-23 03:03:00,
2013-05-22 23:08:00,74.9,70.1,29.90,SE,143,0.0,2.0,85,0.00,,CLR,0.00,VWS V14.01,2013-05-23 03:08:00,
2013-05-22 23:13:00,74.8,70.3,29.90,South,174,3.0,3.0,86,0.00,,CLR,0.00,VWS V14.01,2013-05-23 03:13:00,
2013-05-22 23:18:00,74.6,70.1,29.90,SSE,148,0.0,4.0,86,0.00,,CLR,0.00,VWS V14.01,2013-05-23 03:18:00,
2013-05-22 23:23:00,74.4,69.9,29.90,SE,125,1.0,4.0,86,0.00,,CLR,0.00,VWS V14.01,2013-05-23 03:23:00,
2013-05-22 23:28:00,74.3,69.8,29.90,SE,146,0.0,5.0,86,0.00,,CLR,0.00,VWS V14.01,2013-05-23 03:28:00,
2013-05-22 23:33:00,74.2,69.8,29.90,SSE,164,0.0,2.0,86,0.00,,CLR,0.00,VWS V14.01,2013-05-23 03:33:00,
2013-05-22 23:38:00,74.1,70.0,29.90,South,180,0.0,4.0,87,0.00,,CLR,0.00,VWS V14.01,2013-05-23 03:38:00,
2013-05-22 23:43:00,74.1,70.0,29.90,SSE,168,0.0,4.0,87,0.00,,CLR,0.00,VWS V14.01,2013-05-23 03:43:00,
2013-05-22 23:48:00,73.9,69.8,29.90,ESE,115,0.0,5.0,87,0.00,,CLR,0.00,VWS V14.01,2013-05-23 03:48:00,
2013-05-22 23:53:00,73.7,69.6,29.90,SSE,161,2.0,5.0,87,0.00,,CLR,0.00,VWS V14.01,2013-05-23 03:53:00,
2013-05-22 23:59:00,73.7,69.6,29.90,SE,132,0.0,5.0,87,0.00,,CLR,0.00,VWS V14.01,2013-05-23 03:59:00,